sat.trackr.live / text

‹ back to catalog

STARLINK-35210

NORAD 65903 · 2025-224X

PAYLOAD ACTIVE UNKNOWN

§ Identity

Operator
Country
US
Launch date
2025-10-07
Launch site
AFETR
Launch vehicle
Mass (kg)
RCS (m²)

Purposes: comms

External: N2YO · Heavens-Above · Gunter

§ Orbital elements

Epoch: 2026-05-24T22:34:50.613312Z

Period
94.11 min
Inclination
53.1571°
Eccentricity
0.0001150
Mean motion
15.30179986 rev/d
Perigee alt
474.5 km
Apogee alt
476.1 km
Semi-major
6,853.4 km
B*
1.5917e-3
RAAN
17.5200°
Arg perigee
56.5273°
Mean anomaly
303.5838°
Rev number
3,652

§ Raw data

STARLINK-352101 65903U 25224X   26144.94086358  .00047053  00000+0  15917-2 0  99912 65903  53.1571  17.5200 0001150  56.5273 303.5838 15.30179986 36522

JSON: /api/v1/satellites/65903 · /tle

For live sub-satellite position, see the globe view (requires WebGL).

§ Visibility from observer

Set your observer location to see the next 7 days of passes ≥ 10°. The values pass through the URL so the page stays shareable.

No JS? Fill the form by hand. The geolocation button needs JavaScript.